Home   Weather   Sheffield   Past weeks
Flag for United Kingdom

Past Weather in Sheffield, England, United Kingdom — Yesterday and Last 2 Weeks

Now
46 °F

Cool.


Feels Like: 45 °F
Forecast: 63 / 47 °F
Wind: 3 mph from East

Location: Manchester Airport

Current Time: May 21, 2019 at 3:42:31 am

Latest Report: May 21, 2019 at 2:50 am


Visibility: N/A

Pressure: 30.04 "Hg

Humidity: 87%

Dew Point: 43 °F

Location of SheffieldLocation

Past Weather in Sheffield — Graph

°F

Sheffield Temperature Yesterday

Maximum temperature yesterday: 63 °F (at 4:20 pm)
Minimum temperature yesterday: 46 °F (at 3:20 am)
Average temperature yesterday: 55 °F

High & Low Weather Summary for the Past Weeks

 TemperatureHumidityPressure
High68 °F (May 14, 3:20 pm)100% (May 10, 11:50 pm)30.72 "Hg (May 10, 11:50 pm)
Low36 °F (May 12, 2:20 am)31% (May 12, 5:50 pm)29.24 "Hg (May 8, 1:20 pm)
Average52 °F70%30.04 "Hg
* Reported May 6 2:20 am — May 21 2:20 am, Sheffield. Weather by CustomWeather, © 2019

Note: Actual official high and low records may vary slightly from our data, if they occured in-between our weather recording intervals... More about our weather records

Advertising

Sheffield Weather History for the Previous 24 Hours

Scroll right to see more
 ConditionsComfort  
Time TempWeatherWind HumidityBarometerVisibility
2:20 am
Tue, May 21
50 °FCool.2 mph88%30.04 "HgN/A
1:50 am45 °FQuite cool.2 mph100%30.04 "HgN/A
1:20 am45 °FQuite cool.3 mph93%30.04 "HgN/A
12:50 am45 °FQuite cool.3 mph93%30.04 "HgN/A
12:20 am45 °FQuite cool.2 mph93%30.04 "HgN/A
11:50 pm
Mon, May 20
46 °FCool.2 mph87%30.04 "HgN/A
11:20 pm50 °FCool.1 mph88%30.04 "HgN/A
10:50 pm52 °FCool.5 mph82%30.04 "HgN/A
10:20 pm52 °FCool.6 mph77%30.04 "HgN/A
9:50 pm54 °FCool.6 mph72%30.01 "HgN/A
9:20 pm54 °FCool.7 mph67%30.01 "HgN/A
8:50 pm55 °FCool.8 mph67%30.01 "HgN/A
8:20 pm55 °FCool.10 mph63%30.01 "HgN/A
7:50 pm57 °FRefreshingly cool.10 mph59%29.98 "HgN/A
7:20 pm59 °FRefreshingly cool.10 mph55%29.98 "HgN/A
6:50 pm59 °FRefreshingly cool.13 mph55%29.98 "HgN/A
6:20 pm59 °FRefreshingly cool.10 mph55%29.98 "HgN/A
5:50 pm61 °FRefreshingly cool.12 mph52%29.98 "HgN/A
5:20 pm61 °FPassing clouds.13 mph55%29.98 "HgN/A
4:50 pm61 °FPassing clouds.13 mph55%29.95 "HgN/A
4:20 pm63 °FPassing clouds.12 mph52%29.95 "HgN/A
3:50 pm61 °FPassing clouds.10 mph55%29.95 "HgN/A
3:20 pm61 °FRefreshingly cool.12 mph55%29.95 "HgN/A
2:50 pm61 °FPassing clouds.12 mph55%29.95 "HgN/A
2:20 pm61 °FPassing clouds.13 mph55%29.95 "HgN/A
1:50 pm61 °FPassing clouds.14 mph59%29.95 "HgN/A
1:20 pm61 °FPassing clouds.10 mph59%29.95 "HgN/A
12:50 pm59 °FPassing clouds.10 mph63%29.95 "HgN/A
12:20 pm59 °FBroken clouds.13 mph63%29.95 "HgN/A
11:50 am57 °FScattered clouds.9 mph67%29.95 "HgN/A
11:20 am59 °FScattered clouds.10 mph63%29.95 "HgN/A
10:50 am59 °FPartly sunny.10 mph68%29.95 "HgN/A
10:20 am57 °FPartly sunny.8 mph67%29.95 "HgN/A
9:50 am55 °FPartly sunny.10 mph77%29.95 "HgN/A
9:20 am55 °FPartly sunny.7 mph77%29.95 "HgN/A
8:50 am54 °FScattered clouds.6 mph77%29.95 "HgN/A
8:20 am54 °FPartly sunny.6 mph82%29.95 "HgN/A
7:50 am50 °FBroken clouds.5 mph100%29.92 "HgN/A
6:50 am50 °FFog.1 mph94%29.92 "Hg2 mi
6:20 am48 °FFog.1 mph100%29.92 "Hg2 mi
5:50 am48 °FFog.2 mph100%29.92 "Hg0 mi
5:20 am48 °FFog.3 mph100%29.89 "Hg0 mi
4:50 am48 °FFog.2 mph100%29.89 "Hg1 mi
4:20 am48 °FFog.1 mph100%29.89 "Hg3 mi
3:50 am48 °FFog.1 mph100%29.89 "Hg3 mi
3:20 am46 °FPassing clouds.1 mph93%29.89 "Hg2 mi
Weather by CustomWeather, © 2019

See weather overview